{"data":{"norad_id":57220,"intl_designator":"2023-094C","name":"STARLINK-5880","alt_names":[],"object_type":"PAYLOAD","status":"ACTIVE","operator":null,"country":"US","launch_date":"2023-07-07","launch_site_code":"AFWTR","launch_vehicle":null,"mission":null,"orbit_class":"UNKNOWN","rcs_meters":null,"size_class":null,"mass_kg":null,"dimensions":null,"purposes":["comms"],"wikipedia_slug":null,"has_3d_model":false,"image_url":null,"decayed_at":null,"tle_current":{"epoch":"2026-09-20T04:52:20.784576Z","epoch_age_seconds":146616,"freshness":"FRESH","line1":"1 57220U 23094C   26263.20301834  .00000048  00000+0  11271-4 0  9991","line2":"2 57220  43.0043  15.6372 0001359 266.4668  93.6029 15.27574137176827","mean_motion":15.27574137,"eccentricity":0.0001359,"inclination_deg":43.0043,"raan_deg":15.6372,"arg_perigee_deg":266.4668,"mean_anomaly_deg":93.6029,"bstar":1.1271e-5,"rev_number":17682,"period_min":94.267110519952,"perigee_km":482.1342144507,"apogee_km":483.99908960332,"semimajor_km":6861.203652027,"source":"CELESTRAK","updated_at":"2026-09-21T09:00:33.584220Z"}}}